Home > Time Zones > World Clock > Weather > U.S.A. > Napa > Past weeks

Flag Weather past 2 weeks in Napa, California, U.S.A.

Now
44 °F

Fog.


Feels Like: 44 °F
Forecast: 46 / 59 °F
Wind: No wind

Location: Napa County Airport

Current Time: Nov 21, 2014 at 8:50:02 AM

Latest Report: Nov 21, 2014 at 7:54 AM


Visibility: 0 mi

Pressure: 30.08 "Hg

Humidity: 100%

Dew point: 44 °F

Location of NapaLocation

Historic Weather in Napa — Graph

°F

Napa temperature yesterday

Maximum temperature yesterday: 55 °F (at 3:54 PM)
Minimum temperature yesterday: 49 °F (at 8:54 PM)
Average temperature yesterday: 52 °F

Past Weeks' High & Low Weather Summary

 TemperatureHumidityPressure
High78 °F (Nov 8, 2:54 PM)100% (Nov 6, 6:54 AM)30.24 "Hg (Nov 6, 6:54 AM)
Low32 °F (Nov 17, 6:54 AM)18% (Nov 17, 1:54 PM)29.76 "Hg (Nov 10, 1:54 PM)
Average55 °F77%30.03 "Hg
* Reported Nov 6 6:54 AM — Nov 21 6:54 AM, Napa, Weather by CustomWeather, © 2014

Note: Actual official high and low records may vary slightly from our data, if they occured in-between our weather recording intervals... More about our weather records

Advertising

Napa weather history for previous 24 hours

 ConditionsComfort  
Time TempWeatherWind HumidityBarometerVisibility
6:54 AM
Nov 21
42 °FClear.5 mph100%30.06 "Hg7 mi
5:54 AM42 °FClear.6 mph100%30.05 "Hg9 mi
4:59 AM42 °FFog.6 mph100%30.06 "Hg2 mi
3:54 AM45 °FClear.5 mph100%30.04 "Hg10 mi
2:54 AM45 °FClear.6 mph100%30.03 "Hg8 mi
1:54 AM46 °FClear.3 mph100%30.01 "Hg7 mi
12:54 AM48 °FClear.8 mph100%30.02 "Hg8 mi
11:54 PM
Nov 20
49 °FPassing clouds.7 mph100%30.03 "Hg7 mi
10:54 PM51 °FOvercast.5 mph96%30.02 "Hg10 mi
9:54 PM50 °FOvercast.5 mph100%30.02 "Hg8 mi
8:54 PM49 °FFog.8 mph100%30.01 "Hg4 mi
7:54 PM50 °FClear.3 mph100%29.99 "Hg7 mi
6:54 PM52 °FOvercast.6 mph97%29.98 "Hg9 mi
5:54 PM53 °FPassing clouds.6 mph96%29.98 "Hg7 mi
5:04 PM53 °FLight rain. Fog.8 mph100%30.00 "Hg3 mi
4:54 PM53 °FHeavy rain. Fog.8 mph100%29.98 "Hg1 mi
3:54 PM55 °FLight rain. Fog.9 mph93%29.99 "Hg4 mi
2:54 PM54 °FFog.6 mph97%29.98 "Hg4 mi
1:54 PM53 °FScattered clouds.14 mph96%29.95 "Hg8 mi
12:54 PM52 °FRain. Fog.14 mph97%30.00 "Hg3 mi
11:54 AM53 °FHeavy rain. Fog.7 mph93%30.03 "Hg2 mi
10:54 AM53 °FLight rain. Mostly cloudy.5 mph93%30.05 "Hg9 mi
9:54 AM53 °FOvercast.5 mph93%30.10 "Hg8 mi
8:54 AM52 °FOvercast.8 mph93%30.08 "Hg10 mi
Weather by CustomWeather, © 2014

See weather overviewHow to use our weather pages